Weather History for KFMY - December, 2010

Change the Weather History Date:

Sunday, December 26, 2010

  Actual Average Record
Temperature  
Mean Temperature 57 °F 65 °F  
Max Temperature 67 °F 75 °F 85 °F (1942)
Min Temperature 46 °F 55 °F 29 °F (1983)
Degree Days  
Heating Degree Days 8 3  
Month to date heating degree days 207 56  
Since 1 July heating degree days 219 74  
Cooling Degree Days 0 3  
Month to date cooling degree days 0 106  
Year to date cooling degree days 3844 3969  
Growing Degree Days 6 (Base 50)    
Moisture  
Dew Point 48 °F    
Average Humidity 74    
Maximum Humidity 87    
Minimum Humidity 57    
Precipitation  
Precipitation 0.23 in 0.07 in 2.20 in (1958)
Month to date precipitation 1.34 1.41  
Year to date precipitation 53.08 55.63  
Sea Level Pressure  
Sea Level Pressure 29.94 in    
Wind  
Wind Speed 17 mph (NW)    
Max Wind Speed 26 mph    
Max Gust Speed 37 mph    
Visibility 9 miles    
Events Rain    
T = Trace of Precipitation, MM = Missing Value Source: NWS Daily Summary

Daily Weather History Graph

Daily Weather History Graph

Search for Another Location

Airport or City:

Trip Planner

Search our weather history database for the weather conditions in past years. The results will help you decide how hot, cold, wet, or windy it might be!

Date:

Astronomy

Dec. 26, 2010 Rise Set
Actual Time 7:13 AM EST 5:42 PM EST
Civil Twilight 6:48 AM EST 6:07 PM EST
Nautical Twilight 6:19 AM EST 6:36 PM EST
Astronomical Twilight 5:51 AM EST 7:05 PM EST
Moon 11:33 PM EST (12/26) 11:06 AM EST (12/26)
Length of Visible Light 11h 19m
Length of Day
10h 28m
Waning Gibbous, 67% of the Moon is Illuminated
Dec 26
Waning Gibbous
Dec 27
Last Quarter
Jan 4
New
Jan 12
First Quarter
Jan 19
Full

Hourly Weather History & Observations

Time (EST) Temp. Windchill Dew Point Humidity Pressure Visibility Wind Dir Wind Speed Gust Speed Precip Events Conditions
12:53 AM 66.0 °F - 62.1 °F 87% 29.80 in 6.0 mi SW 13.8 mph 25.3 mph 0.00 in Rain Rain
1:01 AM 66.2 °F - 62.6 °F 88% 29.80 in 1.8 mi SW 13.8 mph 21.9 mph 0.03 in Rain Heavy Rain
1:12 AM 64.4 °F - 62.6 °F 94% 29.80 in 2.0 mi SW 13.8 mph 19.6 mph 0.22 in Rain Rain
1:17 AM 64.4 °F - 62.6 °F 94% 29.80 in 4.0 mi WSW 17.3 mph 25.3 mph 0.23 in Rain Light Rain
1:32 AM 64.4 °F - 62.6 °F 94% 29.80 in 8.0 mi WSW 9.2 mph 20.7 mph 0.23 in   Overcast
1:53 AM 64.9 °F - 63.0 °F 93% 29.81 in 8.0 mi WSW 11.5 mph - 0.23 in   Overcast
2:53 AM 64.9 °F - 61.0 °F 87% 29.81 in 9.0 mi West 18.4 mph 28.8 mph N/A   Overcast
3:53 AM 64.0 °F - 57.9 °F 80% 29.81 in 10.0 mi WNW 15.0 mph 21.9 mph 0.00 in   Overcast
5:17 AM 60.8 °F - 55.4 °F 82% 29.84 in 10.0 mi NW 15.0 mph 23.0 mph N/A   Overcast
5:41 AM 60.8 °F - 53.6 °F 77% 29.85 in 10.0 mi NW 16.1 mph 25.3 mph N/A   Overcast
5:53 AM 59.0 °F - 53.1 °F 81% 29.86 in 10.0 mi NW 13.8 mph 24.2 mph N/A   Overcast
6:53 AM 57.9 °F - 52.0 °F 81% 29.88 in 10.0 mi NW 21.9 mph 27.6 mph N/A   Overcast
7:53 AM 57.0 °F - 48.9 °F 74% 29.90 in 10.0 mi NW 21.9 mph 27.6 mph N/A   Mostly Cloudy
8:53 AM 55.9 °F - 46.9 °F 72% 29.95 in 10.0 mi NW 18.4 mph 34.5 mph N/A   Mostly Cloudy
9:53 AM 54.0 °F - 46.9 °F 77% 29.99 in 6.0 mi NW 16.1 mph 33.4 mph 0.00 in Rain Light Rain
10:53 AM 55.9 °F - 44.1 °F 64% 29.99 in 10.0 mi NW 23.0 mph 32.2 mph 0.00 in   Overcast
11:07 AM 57.2 °F - 42.8 °F 59% 29.99 in 10.0 mi NW 24.2 mph 32.2 mph N/A   Overcast
11:22 AM 55.4 °F - 42.8 °F 63% 29.99 in 10.0 mi NW 24.2 mph 35.7 mph N/A   Overcast
11:53 AM 57.9 °F - 43.0 °F 58% 29.99 in 10.0 mi NW 23.0 mph 32.2 mph N/A   Mostly Cloudy
12:53 PM 55.9 °F - 41.0 °F 57% 29.99 in 10.0 mi NNW 20.7 mph 31.1 mph N/A   Mostly Cloudy
1:53 PM 55.0 °F - 41.0 °F 59% 29.98 in 10.0 mi NW 20.7 mph 26.5 mph N/A   Overcast
2:53 PM 54.0 °F - 39.0 °F 57% 29.98 in 10.0 mi NW 25.3 mph 34.5 mph N/A   Overcast
3:53 PM 53.1 °F - 39.9 °F 61% 30.00 in 10.0 mi NW 19.6 mph 29.9 mph N/A   Overcast
4:53 PM 51.1 °F - 37.0 °F 59% 30.01 in 10.0 mi NW 21.9 mph 31.1 mph N/A   Mostly Cloudy
5:53 PM 50.0 °F - 37.9 °F 63% 30.02 in 10.0 mi NNW 12.7 mph 20.7 mph N/A   Overcast
6:53 PM 50.0 °F - 39.0 °F 66% 30.05 in 10.0 mi NW 16.1 mph 21.9 mph N/A   Overcast
7:53 PM 48.9 °F - 39.0 °F 69% 30.06 in 10.0 mi North 12.7 mph - 0.00 in Rain Light Rain
8:53 PM 48.9 °F - 39.9 °F 71% 30.08 in 10.0 mi NNW 11.5 mph 19.6 mph 0.00 in   Overcast
9:53 PM 48.9 °F - 39.0 °F 69% 30.10 in 10.0 mi North 11.5 mph - 0.00 in   Overcast
10:53 PM 46.9 °F - 39.0 °F 74% 30.13 in 10.0 mi North 6.9 mph - 0.00 in Rain Light Rain
11:53 PM 46.0 °F 41.9 °F 39.0 °F 76% 30.13 in 10.0 mi NNW 8.1 mph - 0.00 in Rain Light Rain